TimeEDT,TemperatureF,Dew PointF,Humidity,Sea Level PressureIn,VisibilityMPH,Wind Direction,Wind SpeedMPH,Gust SpeedMPH,PrecipitationIn,Events,Conditions,WindDirDegrees,DateUTC
12:15 AM,66.2,60.1,81,29.97,10.0,SW,3.5,-,N/A,,Clear,230,2013-05-16 04:15:00
12:35 AM,66.2,57.4,73,29.96,10.0,Calm,Calm,-,N/A,,Clear,0,2013-05-16 04:35:00
12:55 AM,63.9,57.9,81,29.97,10.0,Calm,Calm,-,N/A,,Clear,0,2013-05-16 04:55:00
1:15 AM,64.6,55.2,72,29.96,10.0,WSW,3.5,-,N/A,,Clear,240,2013-05-16 05:15:00
1:35 AM,65.1,55.8,72,29.96,10.0,Calm,Calm,-,N/A,,Clear,0,2013-05-16 05:35:00
1:55 AM,61.9,56.5,82,29.96,10.0,Calm,Calm,-,N/A,,Clear,0,2013-05-16 05:55:00
2:15 AM,58.6,55.6,90,29.96,10.0,Calm,Calm,-,N/A,,Clear,0,2013-05-16 06:15:00
2:35 AM,59.0,55.8,89,29.95,10.0,Calm,Calm,-,N/A,,Clear,0,2013-05-16 06:35:00
2:55 AM,57.2,55.4,94,29.95,10.0,Calm,Calm,-,N/A,,Clear,0,2013-05-16 06:55:00
3:15 AM,56.7,55.4,96,29.95,10.0,Calm,Calm,-,N/A,,Clear,0,2013-05-16 07:15:00
3:35 AM,55.6,54.3,96,29.94,7.0,East,3.5,-,N/A,,Clear,100,2013-05-16 07:35:00
3:55 AM,55.4,54.3,96,29.94,7.0,Calm,Calm,-,N/A,,Clear,0,2013-05-16 07:55:00
4:15 AM,54.7,54.1,98,29.94,7.0,Calm,Calm,-,N/A,,Clear,0,2013-05-16 08:15:00
4:35 AM,54.0,53.6,99,29.95,7.0,Calm,Calm,-,N/A,,Clear,0,2013-05-16 08:35:00
4:55 AM,53.8,53.2,98,29.95,10.0,Calm,Calm,-,N/A,,Clear,0,2013-05-16 08:55:00
5:15 AM,53.1,52.7,99,29.96,7.0,Calm,Calm,-,N/A,,Clear,0,2013-05-16 09:15:00
5:35 AM,52.2,51.4,97,29.96,7.0,Calm,Calm,-,N/A,,Clear,0,2013-05-16 09:35:00
5:55 AM,52.0,51.3,97,29.96,7.0,Calm,Calm,-,N/A,,Clear,0,2013-05-16 09:55:00
6:15 AM,52.0,51.1,97,29.96,7.0,Calm,Calm,-,N/A,,Clear,0,2013-05-16 10:15:00
6:35 AM,52.0,51.6,99,29.97,7.0,Calm,Calm,-,N/A,,Clear,0,2013-05-16 10:35:00
6:55 AM,53.6,53.1,98,29.98,10.0,Calm,Calm,-,N/A,,Clear,0,2013-05-16 10:55:00
7:15 AM,56.1,55.0,96,29.98,10.0,Calm,Calm,-,N/A,,Clear,0,2013-05-16 11:15:00
7:35 AM,58.5,56.7,94,29.98,10.0,Calm,Calm,-,N/A,,Clear,0,2013-05-16 11:35:00
7:55 AM,62.8,57.7,84,29.99,10.0,Calm,Calm,-,N/A,,Clear,0,2013-05-16 11:55:00
8:15 AM,65.8,58.1,76,29.99,10.0,Calm,Calm,-,N/A,,Clear,0,2013-05-16 12:15:00
8:35 AM,69.4,59.7,71,30.00,10.0,Calm,Calm,-,N/A,,Clear,0,2013-05-16 12:35:00
8:55 AM,73.2,59.5,62,30.01,10.0,Calm,Calm,-,N/A,,Clear,0,2013-05-16 12:55:00
9:15 AM,74.8,59.0,58,30.01,10.0,Calm,Calm,-,N/A,,Clear,0,2013-05-16 13:15:00
9:35 AM,77.5,58.1,51,30.01,10.0,Calm,Calm,-,N/A,,Clear,0,2013-05-16 13:35:00
9:55 AM,77.9,57.7,50,30.00,10.0,Calm,Calm,-,N/A,,Clear,0,2013-05-16 13:55:00
10:15 AM,78.3,59.0,51,30.01,10.0,Calm,Calm,-,N/A,,Clear,0,2013-05-16 14:15:00
10:35 AM,80.1,58.1,47,30.01,10.0,SW,4.6,-,N/A,,Clear,220,2013-05-16 14:35:00
10:55 AM,80.1,58.1,47,30.01,10.0,SW,3.5,-,N/A,,Clear,230,2013-05-16 14:55:00
11:15 AM,80.6,57.0,44,30.01,10.0,Calm,Calm,-,N/A,,Clear,0,2013-05-16 15:15:00
11:35 AM,80.1,59.2,49,30.02,10.0,SW,5.8,-,N/A,,Clear,220,2013-05-16 15:35:00
11:55 AM,79.0,58.3,49,30.01,10.0,WSW,5.8,-,N/A,,Clear,250,2013-05-16 15:55:00
12:15 PM,79.0,57.9,48,30.01,10.0,SSW,5.8,-,N/A,,Clear,210,2013-05-16 16:15:00
12:35 PM,78.8,58.1,49,30.01,10.0,WSW,5.8,-,N/A,,Clear,250,2013-05-16 16:35:00
12:55 PM,80.1,58.5,48,30.01,10.0,WSW,6.9,-,N/A,,Clear,250,2013-05-16 16:55:00
1:15 PM,80.1,57.0,45,30.01,10.0,WSW,8.1,-,N/A,,Clear,250,2013-05-16 17:15:00
1:35 PM,81.1,57.2,44,30.01,10.0,SW,5.8,-,N/A,,Clear,230,2013-05-16 17:35:00
1:55 PM,81.9,57.7,44,30.00,10.0,West,4.6,-,N/A,,Clear,270,2013-05-16 17:55:00
2:15 PM,81.9,58.8,45,30.00,10.0,WNW,8.1,-,N/A,,Clear,300,2013-05-16 18:15:00
2:35 PM,82.6,56.8,41,29.98,10.0,NNW,6.9,-,N/A,,Clear,330,2013-05-16 18:35:00
3:15 PM,83.7,55.0,37,29.98,10.0,West,3.5,-,N/A,,Clear,270,2013-05-16 19:15:00
3:35 PM,83.8,58.5,42,29.97,10.0,SSW,4.6,-,N/A,,Scattered Clouds,200,2013-05-16 19:35:00
3:55 PM,84.2,57.4,40,29.97,10.0,SW,6.9,-,N/A,,Scattered Clouds,230,2013-05-16 19:55:00
4:15 PM,82.8,58.1,43,29.96,10.0,SW,5.8,-,N/A,,Clear,230,2013-05-16 20:15:00
4:35 PM,81.9,58.5,45,29.96,10.0,SW,6.9,-,N/A,,Clear,230,2013-05-16 20:35:00
4:55 PM,81.9,59.2,46,29.97,10.0,SSW,4.6,-,N/A,,Clear,210,2013-05-16 20:55:00
5:15 PM,81.0,59.0,47,29.97,10.0,SW,5.8,-,N/A,,Clear,220,2013-05-16 21:15:00
5:35 PM,81.9,58.8,45,29.97,10.0,SW,3.5,-,N/A,,Clear,220,2013-05-16 21:35:00
6:15 PM,80.8,59.5,48,29.97,10.0,WSW,4.6,-,N/A,,Clear,240,2013-05-16 22:15:00
6:35 PM,80.4,60.4,50,29.97,10.0,WSW,3.5,-,N/A,,Clear,240,2013-05-16 22:35:00
6:55 PM,80.1,59.9,50,29.97,10.0,SW,4.6,-,N/A,,Clear,230,2013-05-16 22:55:00
7:15 PM,79.0,59.9,52,29.97,10.0,SW,3.5,-,N/A,,Clear,230,2013-05-16 23:15:00
7:35 PM,77.5,59.7,54,29.98,10.0,Calm,Calm,-,N/A,,Clear,0,2013-05-16 23:35:00
7:55 PM,76.6,60.4,57,29.98,10.0,Calm,Calm,-,N/A,,Clear,0,2013-05-16 23:55:00
8:15 PM,72.9,61.9,68,29.99,10.0,Calm,Calm,-,N/A,,Clear,0,2013-05-17 00:15:00
8:35 PM,70.0,62.1,76,30.00,10.0,Calm,Calm,-,N/A,,Clear,0,2013-05-17 00:35:00
8:55 PM,69.6,62.6,78,30.00,10.0,Calm,Calm,-,N/A,,Clear,0,2013-05-17 00:55:00
9:15 PM,66.9,61.9,84,30.01,10.0,Calm,Calm,-,N/A,,Clear,0,2013-05-17 01:15:00
9:35 PM,66.2,61.7,85,30.02,10.0,Calm,Calm,-,N/A,,Clear,0,2013-05-17 01:35:00
9:55 PM,66.2,61.5,85,30.02,10.0,Calm,Calm,-,N/A,,Clear,0,2013-05-17 01:55:00
10:15 PM,64.9,61.5,89,30.04,10.0,NNW,4.6,-,N/A,,Clear,330,2013-05-17 02:15:00
10:35 PM,67.1,60.1,78,30.04,10.0,NW,4.6,-,N/A,,Clear,320,2013-05-17 02:35:00
10:55 PM,69.3,57.6,66,30.04,10.0,WNW,3.5,-,N/A,,Clear,300,2013-05-17 02:55:00
11:15 PM,68.4,56.8,67,30.04,10.0,NNW,4.6,-,N/A,,Clear,330,2013-05-17 03:15:00
11:35 PM,67.1,55.8,67,30.04,10.0,Calm,Calm,-,N/A,,Clear,0,2013-05-17 03:35:00
11:55 PM,67.1,55.8,67,30.04,10.0,Calm,Calm,-,N/A,,Clear,0,2013-05-17 03:55:00